Location: Newark
(44.3681°N, 100.3364°W)
Time: 08:24:37
(UTC+00:00)

Explorer 7 - Pass Details

Date: 21 February 2020
Orbit: 485 x 679 km, 50.3° (Epoch: 06 April)

Event Time Altitude Azimuth Distance (km) Brightness Sun altitude
Rises 21:07:47 0° 274° (W) 2,897 10.9 27.4°
Reaches altitude 10° 21:10:17 10° 282° (WNW) 1,958 10.1 27.2°
Maximum altitude 21:14:30 39° 351° (N) 879 7.8 26.7°
Drops below altitude 10° 21:18:28 10° 62° (ENE) 1,841 9.1 26.2°
Sets 21:20:45 0° 70° (ENE) 2,702 9.9 26.0°
